Regional Weather Roundup
Issued by NWS Jackson, KY

Home | Current Version | Previous Version | Text Only | Print | Product List | Glossary Off
Versions: 1 2 3 4 5 6 7 8 9 10 11 12 13 14 15 16 17 18 19 20 21 22 23 24 25 26 27 28 29 30 31 32 33 34 35 36 37 38 39 40 41 42 43 44 45 46 47 48 49 50

000
ASUS43 KJKL 201510
RWRJKL

EAST KENTUCKY HOURLY WEATHER ROUNDUP
NATIONAL WEATHER SERVICE JACKSON KY
1100 AM EDT WED AUG 20 2014

NOTE: "FAIR" INDICATES FEW OR NO CLOUDS BELOW 12,000 FEET WITH
NO SIGNIFICANT WEATHER AND/OR OBSTRUCTIONS TO VISIBILITY.

* THESE REPORTS ARE NOT UNDER NWS QUALITY CONTROL AND MAY NOT
  REPORT WEATHER SUCH AS PRECIPITATION AND FOG.

KYZ079-080-083-085-087-088-110-112-115-119-120-201600
...EASTERN KENTUCKY...

CITY           SKY/WX    TMP DP  RH WIND       PRES   REMARKS
JACKSON        PTSUNNY   74  69  85 CALM      30.03R
LONDON         PTSUNNY   81  71  71 SW6       30.02R
SOMERSET*      CLOUDY    79  73  83 SW5       30.02R
MONTICELLO*    PTSUNNY   83  76  79 W7        30.02R HX  91
WILLIAMSBURG*  CLOUDY    81  75  83 SW3       30.02R
MIDDLESBORO*   MOSUNNY   81  72  74 SE3       30.04R
HARLAN APT*    CLOUDY    70  70 100 MISG      30.06R
BLACK MTN*       N/A     70  66  88 S5          N/A
PIKEVILLE APT* PTSUNNY   72  68  88 S5        30.03R
BIG SANDY*     MOSUNNY   75  70  84 S9        30.01R
MOREHEAD APT*  CLOUDY    73  68  83 S7        30.00R
$$

KYZ035-036-041-042-044-050-067-078-099-201600
...CENTRAL KENTUCKY...

CITY           SKY/WX    TMP DP  RH WIND       PRES   REMARKS
MT STERLING*   SUNNY     77  72  83 W9        30.00R
FLEMING/MASON* PTSUNNY   77  70  78 SW8       29.99R
DANVILLE*      PTSUNNY   81  73  78 S3        30.00R
RICHMOND*      CLOUDY    79  72  78 SW7       29.99R
LEXINGTON      MOSUNNY   81  72  74 S8        29.98R
FRANKFORT      MOSUNNY   79  71  76 SW5       29.96R
$$

KYZ091>093-OHZ055-061-077-WVZ005-015-034-035-042-201600
...SOUTHERN OHIO/WEST VIRGINIA...

CITY           SKY/WX    TMP DP  RH WIND       PRES   REMARKS
COVINGTON      MOSUNNY   76  70  82 SW5       29.96R
COLUMBUS       MOSUNNY   77  65  66 S7        29.93R
DAYTON         MOSUNNY   78  69  73 SW7       29.95R
WILMINGTON     MOSUNNY   75  67  76 W10       29.96R
HUNTINGTON     PTSUNNY   74  69  85 SW6       29.97R
CHARLESTON     CLOUDY    74  68  81 CALM      29.99R
PINEVILLE*     PTSUNNY   75  71  86 MISG      30.10R
BECKLEY        CLOUDY    71  65  81 SW7       30.07R
BLUEFIELD      CLOUDY    72  64  76 SW9       30.10R
$$

VAZ002-007-008-TNZ017-027-036-066-071-201600
...SOUTHWEST VIRGINIA/EAST TENNESSEE...

CITY           SKY/WX    TMP DP  RH WIND       PRES   REMARKS
WISE*          CLOUDY    68  68 100 S5        30.12R
JONESVILLE*      N/A     72  68  88 CALM      30.08R
ABINGDON*      PTSUNNY   71  69  93 CALM      30.11R
BRISTOL        TSTM      67  63  87 SE6       30.06F FOG
KNOXVILLE      PTSUNNY   81  73  76 W7        30.03R
OAK RIDGE      MOSUNNY   81  73  76 VRB3      30.04S
CROSSVILLE     CLOUDY    79  72  79 SW7       30.09R
NASHVILLE      MOSUNNY   88  76  67 VRB5      30.00R HX  99
$$

...KEY TO REMARKS...
VSB - VISIBILITY IN MILES
WCI - WIND CHILL INDEX
HX  - HEAT INDEX

$$


USA.gov is the U.S. government's official web portal to all federal, state and local government web resources and services.